Home > Time Zones > World Clock > Weather > Iran > Ahvaz > Past weeks

Flag for Iran Weather past 2 weeks in Ahvaz, Iran

Now
61 °F

Clear.


Feels Like: 61 °F
Forecast: 55 / 77 °F
Wind: No wind

Location: Ahwaz

Current Time: Feb 28, 2015 at 11:12:59 PM

Latest Report: Feb 28, 2015 at 10:30 PM


Visibility: 10 mi

Pressure: 29.95 "Hg

Humidity: 63%

Dew point: 48 °F

Location of AhvazLocation

Historic Weather in Ahvaz — Graph

°F

Ahvaz temperature yesterday

Maximum temperature yesterday: 77 °F (at 2:00 PM)
Minimum temperature yesterday: 50 °F (at 6:30 AM)
Average temperature yesterday: 66 °F

Past Weeks' High & Low Weather Summary

 TemperatureHumidityPressure
High79 °F (Feb 28, 2:30 PM)100% (Feb 18, 7:30 AM)30.15 "Hg (Feb 18, 7:30 AM)
Low43 °F (Feb 23, 4:30 AM)16% (Feb 14, 3:00 PM)29.56 "Hg (Feb 20, 2:30 PM)
Average61 °F58%29.96 "Hg
* Reported Feb 13 9:30 PM — Feb 28 10:00 PM, Ahvaz, Weather by CustomWeather, © 2015

Note: Actual official high and low records may vary slightly from our data, if they occured in-between our weather recording intervals... More about our weather records

Advertising

Ahvaz weather history for previous 24 hours

 ConditionsComfort  
Time TempWeatherWind HumidityBarometerVisibility
10:00 PM
Sat, Feb 28
61 °FClear.No wind68%29.95 "Hg10 mi
9:30 PM61 °FClear.No wind68%29.95 "Hg10 mi
9:00 PM66 °FClear.No wind49%29.95 "Hg10 mi
8:30 PM66 °FClear.No wind49%29.95 "Hg10 mi
8:00 PM66 °FClear.No wind52%29.95 "Hg10 mi
7:30 PM68 °FClear.No wind49%29.92 "Hg10 mi
7:00 PM68 °FClear.No wind49%29.92 "Hg10 mi
6:30 PM72 °FSunny.No wind47%29.92 "Hg10 mi
6:00 PM75 °FSunny.No wind25%29.92 "Hg10 mi
5:30 PM77 °FSunny.No wind21%29.92 "Hg10 mi
5:00 PM79 °FSunny.No wind20%29.92 "Hg10 mi
4:30 PM79 °FSunny.5 mph20%29.92 "Hg10 mi
4:00 PM79 °FSunny.5 mph20%29.95 "Hg10 mi
3:30 PM79 °FSunny.No wind20%29.95 "Hg10 mi
3:00 PM79 °FSunny.No wind23%29.95 "Hg10 mi
2:30 PM79 °FSunny.2 mph23%29.95 "Hg10 mi
2:00 PM77 °FSunny.2 mph28%29.98 "Hg10 mi
1:30 PM77 °FSunny.7 mph28%29.98 "Hg10 mi
1:00 PM77 °FSunny.5 mph26%30.01 "Hg10 mi
12:30 PM75 °FSunny.2 mph29%30.01 "Hg10 mi
12:00 PM73 °FSunny.No wind27%30.01 "Hg10 mi
11:30 AM72 °FSunny.2 mph33%30.01 "Hg10 mi
11:00 AM68 °FSunny.No wind43%30.04 "Hg10 mi
10:30 AM66 °FSunny.2 mph46%30.04 "Hg10 mi
10:00 AM64 °FSunny.2 mph49%30.04 "Hg10 mi
9:30 AM61 °FSunny.2 mph52%30.04 "Hg10 mi
9:00 AM57 °FSunny.2 mph59%30.04 "Hg10 mi
8:30 AM57 °FSunny.5 mph63%30.04 "Hg10 mi
8:00 AM55 °FSunny.No wind67%30.01 "Hg10 mi
7:30 AM52 °FSunny.No wind72%30.01 "Hg10 mi
7:00 AM50 °FClear.No wind82%30.01 "Hg10 mi
6:30 AM48 °FClear.No wind87%30.01 "Hg10 mi
5:30 AM52 °FClear.No wind77%29.98 "Hg10 mi
4:30 AM52 °FClear.No wind77%30.01 "Hg10 mi
3:30 AM52 °FClear.2 mph77%30.01 "Hg10 mi
2:30 AM52 °FClear.No wind62%30.01 "Hg10 mi
1:30 AM55 °FClear.No wind63%30.01 "Hg10 mi
12:30 AM63 °FClear.No wind42%30.01 "Hg10 mi
12:00 AM64 °FClear.5 mph40%30.01 "Hg10 mi
11:30 PM
Fri, Feb 27
64 °FClear.5 mph37%30.01 "Hg10 mi
11:00 PM63 °FClear.5 mph42%30.01 "Hg10 mi
Weather by CustomWeather, © 2015

See weather overviewHow to use our weather pages